This is the latest recevied weather packets stored in our database for station/object AC2VK-1. If no packets are shown the sender has not sent any weather packets the latest 10 day(s).
| Time | Temp. | Humidity | Pressure | Rain* | Wind** | Luminosity | Snow |
|---|---|---|---|---|---|---|---|
| 1778156951 | 12.22° C | 96% | 1014.9 hPa | 0.25 mm | - | - | - |
| 1778156351 | 12.22° C | 96% | 1014.5 hPa | 0.25 mm | - | - | - |
| 1778155751 | 12.22° C | 96% | 1014.7 hPa | 0.25 mm | - | - | - |
| 1778155151 | 12.22° C | 96% | 1014.4 hPa | 0 mm | - | - | - |
| 1778154551 | 12.22° C | 96% | 1014.6 hPa | 0 mm | - | - | - |
| 1778153951 | 12.22° C | 96% | 1014.5 hPa | 0 mm | - | - | - |
| 1778153351 | 12.22° C | 96% | 1013.7 hPa | 0.25 mm | - | - | - |
| 1778152751 | 12.22° C | 96% | 1014 hPa | 0.25 mm | - | - | - |
| 1778152151 | 12.22° C | 96% | 1013.9 hPa | 0.25 mm | - | - | - |
| 1778151551 | 12.22° C | 96% | 1014 hPa | 0.25 mm | - | - | - |
| 1778150951 | 12.22° C | 96% | 1014 hPa | 0.25 mm | - | - | - |
| 1778150351 | 12.22° C | 96% | 1014 hPa | 0.25 mm | - | - | - |
| 1778149751 | 12.22° C | 96% | 1014.2 hPa | 0.25 mm | - | - | - |
| 1778149151 | 12.22° C | 96% | 1014.1 hPa | 0.51 mm | - | - | - |
| 1778148551 | 12.22° C | 96% | 1014.3 hPa | 1.27 mm | - | - | - |
| 1778147951 | 12.78° C | 96% | 1014.1 hPa | 2.03 mm | - | - | - |
| 1778147351 | 12.22° C | 96% | 1013.6 hPa | 2.03 mm | - | - | - |
| 1778146752 | 12.78° C | 96% | 1013.6 hPa | 2.03 mm | - | - | - |
| 1778146151 | 12.78° C | 96% | 1013.7 hPa | 1.78 mm | - | - | - |
| 1778145551 | 12.78° C | 96% | 1013.5 hPa | 1.52 mm | - | - | - |
| 1778144952 | 12.78° C | 96% | 1013.8 hPa | 0.76 mm | - | - | - |
| 1778144352 | 12.78° C | 96% | 1013.9 hPa | 0 mm | - | - | - |
| 1778143752 | 12.78° C | 96% | 1013.6 hPa | 0 mm | - | - | - |
| 1778143152 | 12.78° C | 96% | 1013.5 hPa | 0 mm | - | - | - |
| 1778142552 | 12.78° C | 96% | 1013.4 hPa | 0 mm | - | - | - |
* Rain latest hour (hover to see other rain measurements)
** Current wind speed in m/s (hover to see current wind gust speed)